ACA890 CYYZ-LIRF

Flight info

Callsign ACA890
Flight time N/A
Altitude 39000
Route VERDO7 IPTOS DCT KEMVI Q852 TAMKO Q941 AGLUK DCT BAREE N447B ELSIR/M086F370 DCT 50N050W 51N040W 52N030W 53N020W DCT MALOT DCT GISTI/N0488F370 DCT BIBLA/M085F370 DCT ARKIL/N0487F370 DCT DOLUR DCT TERKU DCT KORER DCT LEMKA DCT BEBIX DCT YAQEL DCT RETNO DCT KOLON DCT RAPUR DCT RATAP DCT BTA DCT MOULE DCT XOPTA DCT ELB DCT ELKAP
Aircraft B789/H-SDE1E2E3FGHIJ2J3J4J5M1RWXY/LB1D1

Departure

Time 2026-05-06 11:34
Airport Toronto Pearson International Airport (CYYZ)

Arrival

Time N/A
Airport Rome–Fiumicino Leonardo da Vinci International Airport (LIRF)
Time Latitude Longitude Altitude Speed Heading
2026-05-06 11:06 43.67602 -79.61018 567 ft 0 kts 330°
2026-05-06 11:18 43.67596 -79.61014 567 ft 2 kts 330°
2026-05-06 11:18 43.67587 -79.61006 567 ft 0 kts 330°
2026-05-06 11:19 43.67575 -79.60996 566 ft 2 kts 318°
2026-05-06 11:19 43.67564 -79.60980 566 ft 2 kts 301°
2026-05-06 11:19 43.67557 -79.60962 566 ft 2 kts 287°
2026-05-06 11:19 43.67554 -79.60941 566 ft 2 kts 272°
2026-05-06 11:20 43.67554 -79.60920 566 ft 2 kts 257°
2026-05-06 11:20 43.67559 -79.60899 566 ft 2 kts 243°
2026-05-06 11:20 43.67566 -79.60882 566 ft 0 kts 229°
2026-05-06 11:20 43.67569 -79.60879 566 ft 0 kts 227°
2026-05-06 11:22 43.67568 -79.60880 566 ft 0 kts 227°
2026-05-06 11:22 43.67559 -79.60892 566 ft 2 kts 228°
2026-05-06 11:22 43.67541 -79.60924 566 ft 5 kts 233°
2026-05-06 11:23 43.67518 -79.60973 565 ft 7 kts 239°
2026-05-06 11:23 43.67497 -79.61039 566 ft 7 kts 251°
2026-05-06 11:23 43.67484 -79.61108 567 ft 6 kts 259°
2026-05-06 11:23 43.67480 -79.61170 568 ft 6 kts 270°
2026-05-06 11:24 43.67474 -79.61233 568 ft 7 kts 246°
2026-05-06 11:24 43.67431 -79.61282 567 ft 9 kts 209°
2026-05-06 11:24 43.67374 -79.61342 566 ft 10 kts 237°
2026-05-06 11:24 43.67401 -79.61435 566 ft 11 kts 318°
2026-05-06 11:25 43.67460 -79.61507 567 ft 11 kts 317°
2026-05-06 11:25 43.67517 -79.61578 569 ft 10 kts 317°
2026-05-06 11:25 43.67574 -79.61651 570 ft 10 kts 317°
2026-05-06 11:25 43.67628 -79.61722 571 ft 10 kts 316°
2026-05-06 11:26 43.67682 -79.61793 572 ft 10 kts 316°
2026-05-06 11:26 43.67735 -79.61861 573 ft 10 kts 316°
2026-05-06 11:26 43.67787 -79.61930 574 ft 10 kts 316°
2026-05-06 11:26 43.67838 -79.61996 575 ft 9 kts 316°
2026-05-06 11:27 43.67885 -79.62061 576 ft 9 kts 306°
2026-05-06 11:27 43.67913 -79.62149 576 ft 10 kts 298°
2026-05-06 11:27 43.67957 -79.62221 577 ft 9 kts 317°
2026-05-06 11:27 43.68008 -79.62286 578 ft 9 kts 317°
2026-05-06 11:28 43.68060 -79.62354 578 ft 11 kts 316°
2026-05-06 11:28 43.68124 -79.62437 576 ft 13 kts 317°
2026-05-06 11:28 43.68200 -79.62534 574 ft 16 kts 317°
2026-05-06 11:28 43.68290 -79.62650 572 ft 18 kts 314°
2026-05-06 11:29 43.68378 -79.62766 569 ft 17 kts 316°
2026-05-06 11:29 43.68476 -79.62893 565 ft 18 kts 316°
2026-05-06 11:29 43.68563 -79.63007 564 ft 14 kts 316°
2026-05-06 11:29 43.68641 -79.63110 562 ft 16 kts 316°
2026-05-06 11:30 43.68730 -79.63225 560 ft 18 kts 317°
2026-05-06 11:30 43.68810 -79.63330 558 ft 16 kts 316°
2026-05-06 11:30 43.68899 -79.63447 556 ft 15 kts 316°
2026-05-06 11:30 43.68984 -79.63558 553 ft 18 kts 316°
2026-05-06 11:31 43.69084 -79.63687 549 ft 18 kts 316°
2026-05-06 11:31 43.69179 -79.63814 549 ft 19 kts 317°
2026-05-06 11:31 43.69277 -79.63939 549 ft 16 kts 316°
2026-05-06 11:31 43.69358 -79.64053 550 ft 12 kts 300°
2026-05-06 11:32 43.69354 -79.64168 552 ft 11 kts 249°
2026-05-06 11:32 43.69311 -79.64265 553 ft 11 kts 225°
2026-05-06 11:32 43.69241 -79.64276 552 ft 12 kts 147°
2026-05-06 11:32 43.69163 -79.64178 549 ft 20 kts 136°
2026-05-06 11:33 43.68924 -79.63863 548 ft 80 kts 136°
2026-05-06 11:33 43.68360 -79.63125 563 ft 142 kts 137°
2026-05-06 11:33 43.67518 -79.62017 574 ft 178 kts 134°
2026-05-06 11:33 43.66548 -79.60736 738 ft 204 kts 135°
2026-05-06 11:34 43.65499 -79.59322 1350 ft 211 kts 124°
2026-05-06 11:34 43.65140 -79.57407 2090 ft 211 kts 88°
2026-05-06 11:34 43.65199 -79.55385 2826 ft 211 kts 91°
2026-05-06 11:34 43.65206 -79.53341 3490 ft 213 kts 92°
2026-05-06 11:35 43.65195 -79.51247 4089 ft 221 kts 93°
2026-05-06 11:35 43.65161 -79.48979 4439 ft 245 kts 94°
2026-05-06 11:35 43.65118 -79.46561 5083 ft 252 kts 94°
2026-05-06 11:35 43.65071 -79.44115 5839 ft 255 kts 95°
2026-05-06 11:36 43.65015 -79.41615 6545 ft 259 kts 96°
2026-05-06 11:36 43.64955 -79.39079 7205 ft 265 kts 96°
2026-05-06 11:36 43.64889 -79.36479 7850 ft 270 kts 97°
2026-05-06 11:36 43.64819 -79.33843 8456 ft 276 kts 97°
2026-05-06 11:37 43.64747 -79.31136 9059 ft 281 kts 98°
2026-05-06 11:37 43.64673 -79.28396 9628 ft 287 kts 98°
2026-05-06 11:37 43.64703 -79.25579 10143 ft 299 kts 90°
2026-05-06 11:37 43.65102 -79.22536 10182 ft 330 kts 79°
2026-05-06 11:38 43.65880 -79.19376 10387 ft 352 kts 72°
2026-05-06 11:38 43.66833 -79.16142 10916 ft 361 kts 70°
2026-05-06 11:38 43.67853 -79.12894 11474 ft 368 kts 69°
2026-05-06 11:38 43.68917 -79.09591 12020 ft 375 kts 68°
2026-05-06 11:39 43.69991 -79.06294 12568 ft 380 kts 68°
2026-05-06 11:39 43.70985 -79.02816 13138 ft 383 kts 73°
2026-05-06 11:39 43.71873 -78.99274 13688 ft 388 kts 74°
2026-05-06 11:39 43.72737 -78.95677 14220 ft 393 kts 75°
2026-05-06 11:40 43.73605 -78.92015 14770 ft 396 kts 75°
2026-05-06 11:40 43.74480 -78.88300 15324 ft 400 kts 75°
2026-05-06 11:40 43.75350 -78.84590 15855 ft 403 kts 76°
2026-05-06 11:40 43.76230 -78.80824 16380 ft 406 kts 76°
2026-05-06 11:41 43.77243 -78.77092 16884 ft 413 kts 69°
2026-05-06 11:41 43.78442 -78.73442 17369 ft 416 kts 68°
2026-05-06 11:41 43.79676 -78.69752 17855 ft 420 kts 68°
2026-05-06 11:41 43.80937 -78.66032 18321 ft 423 kts 68°
2026-05-06 11:42 43.82210 -78.62302 18788 ft 426 kts 68°
2026-05-06 11:42 43.83510 -78.58502 19242 ft 430 kts 68°
2026-05-06 11:42 43.84814 -78.54700 19679 ft 433 kts 68°
2026-05-06 11:42 43.86118 -78.50902 20113 ft 436 kts 68°
2026-05-06 11:43 43.87440 -78.47047 20534 ft 439 kts 68°
2026-05-06 11:43 43.88771 -78.43164 20949 ft 442 kts 68°
2026-05-06 11:43 43.90122 -78.39220 21370 ft 445 kts 68°
2026-05-06 11:44 43.92827 -78.31321 22173 ft 450 kts 69°
2026-05-06 11:44 43.94169 -78.27385 22539 ft 453 kts 69°
2026-05-06 11:44 43.95540 -78.23364 22908 ft 455 kts 69°
2026-05-06 11:44 43.96919 -78.19311 23277 ft 458 kts 69°
2026-05-06 11:45 43.98294 -78.15266 23650 ft 460 kts 69°
2026-05-06 11:45 43.99676 -78.11193 23968 ft 463 kts 70°
2026-05-06 11:45 44.01064 -78.07096 24326 ft 465 kts 70°
2026-05-06 11:45 44.02467 -78.02948 24673 ft 467 kts 70°
2026-05-06 11:46 44.03872 -77.98792 25006 ft 470 kts 70°
2026-05-06 11:46 44.05284 -77.94607 25345 ft 472 kts 70°
2026-05-06 11:46 44.06691 -77.90424 25649 ft 475 kts 70°
2026-05-06 11:46 44.08118 -77.86183 25967 ft 477 kts 70°
2026-05-06 11:47 44.09538 -77.81956 26286 ft 479 kts 70°
2026-05-06 11:47 44.10951 -77.77737 26566 ft 481 kts 70°
2026-05-06 11:47 44.12388 -77.73442 26852 ft 483 kts 70°
2026-05-06 11:47 44.13829 -77.69135 27135 ft 485 kts 70°
2026-05-06 11:48 44.15257 -77.64857 27400 ft 487 kts 70°
2026-05-06 11:48 44.16710 -77.60490 27656 ft 489 kts 70°
2026-05-06 11:48 44.18169 -77.56133 27968 ft 491 kts 69°
2026-05-06 11:48 44.19868 -77.51904 28201 ft 499 kts 62°
2026-05-06 11:49 44.21859 -77.47888 28439 ft 503 kts 58°
2026-05-06 11:49 44.23972 -77.43925 28782 ft 503 kts 57°
2026-05-06 11:49 44.26133 -77.39992 29099 ft 503 kts 56°
2026-05-06 11:49 44.28321 -77.36084 29422 ft 503 kts 56°
2026-05-06 11:50 44.30518 -77.32192 29708 ft 503 kts 56°
2026-05-06 11:50 44.32710 -77.28335 30029 ft 502 kts 56°
2026-05-06 11:50 44.34890 -77.24499 30297 ft 502 kts 56°
2026-05-06 11:50 44.37087 -77.20633 30566 ft 502 kts 56°
2026-05-06 11:51 44.39272 -77.16789 30810 ft 502 kts 56°
2026-05-06 11:51 44.41504 -77.12852 30990 ft 504 kts 56°
2026-05-06 11:51 44.43700 -77.08993 31242 ft 503 kts 56°
2026-05-06 11:51 44.45915 -77.05087 31494 ft 503 kts 56°
2026-05-06 11:52 44.48123 -77.01202 31766 ft 502 kts 57°
2026-05-06 11:52 44.50314 -76.97335 31983 ft 502 kts 57°
2026-05-06 11:52 44.52494 -76.93480 32164 ft 502 kts 57°
2026-05-06 11:52 44.54672 -76.89614 32312 ft 504 kts 57°
2026-05-06 11:53 44.56883 -76.85696 32512 ft 504 kts 58°
2026-05-06 11:53 44.59087 -76.81788 32715 ft 504 kts 58°
2026-05-06 11:53 44.61296 -76.77861 32961 ft 502 kts 58°
2026-05-06 11:53 44.63456 -76.74004 33145 ft 502 kts 58°
2026-05-06 11:54 44.65669 -76.70049 33316 ft 503 kts 58°
2026-05-06 11:54 44.67839 -76.66164 33457 ft 504 kts 59°
2026-05-06 11:54 44.70038 -76.62228 33607 ft 504 kts 59°
2026-05-06 11:54 44.72239 -76.58294 33852 ft 502 kts 59°
2026-05-06 11:55 44.74420 -76.54380 34048 ft 502 kts 59°
2026-05-06 11:55 44.76576 -76.50505 34231 ft 501 kts 59°
2026-05-06 11:55 44.78754 -76.46577 34342 ft 502 kts 59°
2026-05-06 11:55 44.80954 -76.42612 34489 ft 502 kts 59°
2026-05-06 11:56 44.83112 -76.38723 34650 ft 502 kts 59°
2026-05-06 11:56 44.85289 -76.34792 34832 ft 501 kts 60°
2026-05-06 11:56 44.87433 -76.30920 35020 ft 500 kts 60°
2026-05-06 11:56 44.89602 -76.26990 35167 ft 499 kts 60°
2026-05-06 11:57 44.91742 -76.23084 35312 ft 497 kts 62°
2026-05-06 11:57 44.93666 -76.19057 35425 ft 490 kts 68°
2026-05-06 11:57 44.96939 -76.10541 35629 ft 486 kts 71°
2026-05-06 11:58 44.98550 -76.06331 35785 ft 486 kts 71°
2026-05-06 11:58 45.00196 -76.02068 35877 ft 487 kts 71°
2026-05-06 11:58 45.01825 -75.97875 35983 ft 487 kts 71°
2026-05-06 11:58 45.03461 -75.93671 36034 ft 489 kts 71°
2026-05-06 11:59 45.05121 -75.89420 36200 ft 487 kts 71°
2026-05-06 11:59 45.06781 -75.85156 36272 ft 488 kts 72°
2026-05-06 11:59 45.10127 -75.76555 36412 ft 490 kts 72°
2026-05-06 12:00 45.13428 -75.68054 36529 ft 489 kts 72°
2026-05-06 12:00 45.16727 -75.59524 36647 ft 489 kts 72°
2026-05-06 12:01 45.20001 -75.51038 36775 ft 488 kts 72°
2026-05-06 12:01 45.23318 -75.42413 36836 ft 489 kts 72°
2026-05-06 12:02 45.27058 -75.34134 36938 ft 502 kts 64°
2026-05-06 12:02 45.31300 -75.26150 37078 ft 502 kts 63°
2026-05-06 12:03 45.35609 -75.18208 37101 ft 504 kts 62°
2026-05-06 12:03 45.39955 -75.10258 37176 ft 504 kts 62°
2026-05-06 12:04 45.42158 -75.06234 37315 ft 501 kts 62°
2026-05-06 12:04 45.44324 -75.02305 37419 ft 500 kts 62°
2026-05-06 12:04 45.46500 -74.98383 37552 ft 497 kts 61°
2026-05-06 12:04 45.48659 -74.94485 37636 ft 496 kts 61°
2026-05-06 12:05 45.52991 -74.86648 37801 ft 493 kts 61°
2026-05-06 12:05 45.57285 -74.78861 37862 ft 493 kts 61°
2026-05-06 12:06 45.61562 -74.71079 37894 ft 493 kts 61°
2026-05-06 12:06 45.65851 -74.63264 37916 ft 494 kts 61°
2026-05-06 12:07 45.70126 -74.55450 37966 ft 494 kts 61°
2026-05-06 12:07 45.74418 -74.47578 37981 ft 495 kts 61°
2026-05-06 12:08 45.78687 -74.39738 38066 ft 494 kts 61°
2026-05-06 12:08 45.82962 -74.31850 38124 ft 494 kts 62°
2026-05-06 12:09 45.87191 -74.24036 38229 ft 493 kts 62°
2026-05-06 12:09 45.91423 -74.16176 38251 ft 493 kts 62°
2026-05-06 12:10 45.95659 -74.08295 38298 ft 493 kts 62°
2026-05-06 12:10 45.99893 -74.00397 38344 ft 493 kts 62°
2026-05-06 12:11 46.03871 -73.92308 38401 ft 482 kts 70°
2026-05-06 12:11 46.06861 -73.83794 38453 ft 472 kts 76°
2026-05-06 12:12 46.09588 -73.75116 38514 ft 470 kts 77°
2026-05-06 12:12 46.12228 -73.66431 38507 ft 469 kts 78°
2026-05-06 12:13 46.14846 -73.57690 38470 ft 469 kts 78°
2026-05-06 12:13 46.17454 -73.48924 38454 ft 468 kts 78°
2026-05-06 12:14 46.20148 -73.40240 38430 ft 477 kts 71°
2026-05-06 12:14 46.23817 -73.31966 38442 ft 486 kts 65°
2026-05-06 12:15 46.27752 -73.23917 38417 ft 488 kts 64°
2026-05-06 12:15 46.31763 -73.15917 38402 ft 488 kts 64°
2026-05-06 12:16 46.35808 -73.07889 38406 ft 488 kts 63°
2026-05-06 12:16 46.39845 -72.99901 38470 ft 486 kts 63°
2026-05-06 12:17 46.43868 -72.91914 38479 ft 486 kts 63°
2026-05-06 12:17 46.47874 -72.83952 38494 ft 485 kts 63°
2026-05-06 12:18 46.51887 -72.75950 38487 ft 485 kts 63°
2026-05-06 12:18 46.55890 -72.67950 38505 ft 485 kts 63°
2026-05-06 12:19 46.59899 -72.59910 38527 ft 484 kts 63°
2026-05-06 12:19 46.63889 -72.51887 38533 ft 484 kts 63°
2026-05-06 12:20 46.67853 -72.43882 38546 ft 484 kts 63°
2026-05-06 12:20 46.71820 -72.35867 38578 ft 484 kts 63°
2026-05-06 12:21 46.75791 -72.27798 38574 ft 484 kts 63°
2026-05-06 12:21 46.79734 -72.19777 38595 ft 483 kts 63°
2026-05-06 12:22 46.83690 -72.11710 38616 ft 483 kts 63°
2026-05-06 12:22 46.87613 -72.03682 38642 ft 482 kts 63°
2026-05-06 12:23 46.91531 -71.95642 38680 ft 482 kts 64°
2026-05-06 12:23 46.95434 -71.87609 38718 ft 481 kts 64°
2026-05-06 12:24 46.99335 -71.79556 38766 ft 480 kts 64°
2026-05-06 12:24 47.03229 -71.71493 38807 ft 480 kts 64°
2026-05-06 12:25 47.07116 -71.63416 38850 ft 479 kts 64°
2026-05-06 12:25 47.10967 -71.55403 38891 ft 478 kts 64°
2026-05-06 12:26 47.14827 -71.47338 38890 ft 476 kts 64°
2026-05-06 12:26 47.18689 -71.39251 38888 ft 474 kts 64°
2026-05-06 12:27 47.22510 -71.31226 38888 ft 472 kts 65°
2026-05-06 12:27 47.26299 -71.23247 38894 ft 470 kts 65°
2026-05-06 12:28 47.30049 -71.15315 38890 ft 468 kts 65°
2026-05-06 12:28 47.33812 -71.07345 38894 ft 466 kts 65°
2026-05-06 12:29 47.37534 -70.99425 38895 ft 464 kts 65°
2026-05-06 12:29 47.41235 -70.91517 38892 ft 462 kts 64°
2026-05-06 12:30 47.44900 -70.83672 38882 ft 460 kts 63°
2026-05-06 12:30 47.48573 -70.75805 38865 ft 459 kts 63°
2026-05-06 12:31 47.52242 -70.67934 38853 ft 458 kts 63°
2026-05-06 12:31 47.55886 -70.60087 38851 ft 456 kts 63°
2026-05-06 12:32 47.59484 -70.52310 38852 ft 454 kts 63°
2026-05-06 12:32 47.63074 -70.44528 38854 ft 452 kts 63°
2026-05-06 12:33 47.66656 -70.36742 38855 ft 450 kts 63°
2026-05-06 12:33 47.70215 -70.28983 38851 ft 448 kts 64°
2026-05-06 12:34 47.73748 -70.21255 38853 ft 446 kts 64°
2026-05-06 12:34 47.77249 -70.13576 38858 ft 443 kts 64°
2026-05-06 12:35 47.80734 -70.05905 38842 ft 442 kts 64°
2026-05-06 12:35 47.84182 -69.98295 38852 ft 440 kts 64°
2026-05-06 12:36 47.87645 -69.90630 38854 ft 438 kts 64°
2026-05-06 12:36 47.91077 -69.83011 38858 ft 436 kts 64°
2026-05-06 12:37 47.94502 -69.75399 38862 ft 434 kts 64°
2026-05-06 12:37 47.97915 -69.67788 38865 ft 433 kts 64°
2026-05-06 12:38 48.01285 -69.60250 38861 ft 431 kts 64°
2026-05-06 12:38 48.04646 -69.52714 38866 ft 428 kts 64°
2026-05-06 12:39 48.07962 -69.45256 38866 ft 426 kts 64°
2026-05-06 12:39 48.11287 -69.37752 38843 ft 423 kts 65°
2026-05-06 12:40 48.13888 -69.30034 38833 ft 403 kts 81°
2026-05-06 12:40 48.15601 -69.22066 38828 ft 392 kts 85°
2026-05-06 12:41 48.17040 -69.14128 38828 ft 383 kts 87°
2026-05-06 12:41 48.17700 -69.10187 38455 ft 391 kts 87°
2026-05-06 12:41 48.18359 -69.06127 38246 ft 396 kts 87°
2026-05-06 12:42 48.19014 -69.02009 37893 ft 405 kts 86°
2026-05-06 12:42 48.19671 -68.97858 37869 ft 404 kts 86°
2026-05-06 12:42 48.20970 -68.89546 37844 ft 404 kts 86°
2026-05-06 12:43 48.22253 -68.81242 37839 ft 403 kts 86°
2026-05-06 12:43 48.23521 -68.72945 37839 ft 403 kts 86°
2026-05-06 12:44 48.24784 -68.64619 37843 ft 404 kts 86°
2026-05-06 12:44 48.26039 -68.56286 37840 ft 405 kts 86°
2026-05-06 12:45 48.27300 -68.47884 37842 ft 407 kts 86°
2026-05-06 12:46 48.29185 -68.35199 37826 ft 410 kts 86°
2026-05-06 12:46 48.30441 -68.26731 37836 ft 411 kts 87°
2026-05-06 12:47 48.31690 -68.18246 37839 ft 412 kts 87°
2026-05-06 12:47 48.32932 -68.09748 37841 ft 414 kts 87°
2026-05-06 12:48 48.34180 -68.01159 37842 ft 416 kts 86°
2026-05-06 12:48 48.35426 -67.92533 37844 ft 418 kts 86°
2026-05-06 12:49 48.36669 -67.83881 37843 ft 420 kts 86°
2026-05-06 12:49 48.37920 -67.75127 37846 ft 422 kts 86°
2026-05-06 12:50 48.39175 -67.66281 37845 ft 425 kts 86°
2026-05-06 12:50 48.40428 -67.57407 37847 ft 428 kts 86°
2026-05-06 12:51 48.41684 -67.48454 37845 ft 432 kts 86°
2026-05-06 12:51 48.42942 -67.39423 37846 ft 435 kts 86°
2026-05-06 12:52 48.44202 -67.30341 37846 ft 439 kts 87°
2026-05-06 12:52 48.45459 -67.21220 37848 ft 443 kts 87°
2026-05-06 12:53 48.46722 -67.11937 37844 ft 448 kts 86°
2026-05-06 12:53 48.47995 -67.02530 37846 ft 452 kts 85°
2026-05-06 12:54 48.49271 -66.93072 37847 ft 457 kts 84°
2026-05-06 12:54 48.50569 -66.83474 37871 ft 462 kts 84°
2026-05-06 12:55 48.51860 -66.73804 37896 ft 467 kts 84°
2026-05-06 12:55 48.53161 -66.63993 37902 ft 473 kts 84°
2026-05-06 12:56 48.54470 -66.54057 37907 ft 479 kts 84°
2026-05-06 12:56 48.55778 -66.44024 37906 ft 486 kts 84°
2026-05-06 12:57 48.57103 -66.33808 37907 ft 493 kts 84°
2026-05-06 12:57 48.58437 -66.23425 37906 ft 501 kts 84°
2026-05-06 12:58 48.59793 -66.12822 37906 ft 509 kts 84°
2026-05-06 12:58 48.61145 -66.02147 37906 ft 516 kts 84°
2026-05-06 12:59 48.62505 -65.91325 37900 ft 517 kts 84°
2026-05-06 12:59 48.63862 -65.80442 37899 ft 517 kts 84°
2026-05-06 13:00 48.65203 -65.69602 37899 ft 517 kts 84°
2026-05-06 13:00 48.66536 -65.58738 37901 ft 516 kts 84°
2026-05-06 13:01 48.67852 -65.47923 37898 ft 517 kts 84°
2026-05-06 13:01 48.69158 -65.37101 37887 ft 516 kts 84°
2026-05-06 13:02 48.70458 -65.26243 37873 ft 515 kts 85°
2026-05-06 13:02 48.71737 -65.15456 37872 ft 515 kts 85°
2026-05-06 13:03 48.73013 -65.04622 37874 ft 515 kts 85°
2026-05-06 13:03 48.74276 -64.93705 37875 ft 518 kts 84°
2026-05-06 13:04 48.75524 -64.82859 37874 ft 519 kts 83°
2026-05-06 13:04 48.76781 -64.71934 37874 ft 519 kts 83°
2026-05-06 13:05 48.78032 -64.61008 37874 ft 518 kts 83°
2026-05-06 13:05 48.79269 -64.50043 37876 ft 519 kts 83°
2026-05-06 13:06 48.80491 -64.39103 37875 ft 519 kts 83°
2026-05-06 13:06 48.81705 -64.28139 37878 ft 518 kts 84°
2026-05-06 13:07 48.82909 -64.17160 37882 ft 519 kts 84°
2026-05-06 13:07 48.84105 -64.06156 37882 ft 519 kts 84°
2026-05-06 13:08 48.85284 -63.95198 37883 ft 519 kts 84°
2026-05-06 13:08 48.86461 -63.84161 37883 ft 519 kts 84°
2026-05-06 13:09 48.87624 -63.73150 37883 ft 519 kts 84°
2026-05-06 13:09 48.88771 -63.62195 37884 ft 519 kts 84°
2026-05-06 13:10 48.89911 -63.51198 37885 ft 518 kts 84°
2026-05-06 13:10 48.91040 -63.40196 37886 ft 518 kts 84°
2026-05-06 13:11 48.92161 -63.29173 37881 ft 518 kts 84°
2026-05-06 13:11 48.93263 -63.18218 37882 ft 518 kts 84°
2026-05-06 13:12 48.94368 -63.07115 37884 ft 518 kts 84°
2026-05-06 13:12 48.95446 -62.96119 37882 ft 517 kts 83°
2026-05-06 13:13 48.96514 -62.85166 37882 ft 516 kts 83°
2026-05-06 13:13 48.97587 -62.74143 37884 ft 517 kts 83°
2026-05-06 13:14 48.98645 -62.63113 37887 ft 518 kts 83°
2026-05-06 13:14 48.99685 -62.52135 37884 ft 519 kts 83°
2026-05-06 13:15 49.00728 -62.40999 37883 ft 519 kts 83°
2026-05-06 13:15 49.01757 -62.29916 37881 ft 521 kts 84°
2026-05-06 13:16 49.02775 -62.18814 37878 ft 522 kts 84°
2026-05-06 13:16 49.03779 -62.07741 37882 ft 522 kts 84°
2026-05-06 13:17 49.04776 -61.96617 37884 ft 524 kts 84°
2026-05-06 13:17 49.05779 -61.85332 37880 ft 524 kts 84°
2026-05-06 13:18 49.06762 -61.74099 37889 ft 525 kts 84°
2026-05-06 13:18 49.07733 -61.62902 37890 ft 526 kts 83°
2026-05-06 13:19 49.08700 -61.51604 37886 ft 527 kts 84°
2026-05-06 13:19 49.09658 -61.40309 37889 ft 528 kts 83°
2026-05-06 13:20 49.10606 -61.28991 37874 ft 528 kts 84°
2026-05-06 13:20 49.11539 -61.17715 37874 ft 529 kts 84°
2026-05-06 13:21 49.12455 -61.06356 37881 ft 534 kts 83°
2026-05-06 13:21 49.13376 -60.94881 37882 ft 538 kts 82°
2026-05-06 13:22 49.14301 -60.83371 37880 ft 537 kts 82°
2026-05-06 13:22 49.15214 -60.71769 37888 ft 537 kts 83°
2026-05-06 13:23 49.16108 -60.60272 37880 ft 536 kts 82°
2026-05-06 13:23 49.16992 -60.48741 37882 ft 537 kts 82°
2026-05-06 13:24 49.17867 -60.37180 37890 ft 537 kts 82°
2026-05-06 13:24 49.18724 -60.25704 37877 ft 536 kts 83°
2026-05-06 13:25 49.19572 -60.14132 37876 ft 537 kts 83°
2026-05-06 13:25 49.20403 -60.02645 37877 ft 537 kts 83°
2026-05-06 13:26 49.21234 -59.91089 37882 ft 537 kts 83°
2026-05-06 13:26 49.22044 -59.79538 37879 ft 536 kts 83°
2026-05-06 13:27 49.22845 -59.67988 37911 ft 536 kts 83°
2026-05-06 13:27 49.23631 -59.56512 37965 ft 536 kts 83°
2026-05-06 13:28 49.24408 -59.44972 38006 ft 537 kts 83°
2026-05-06 13:28 49.25178 -59.33358 38004 ft 537 kts 84°
2026-05-06 13:29 49.25931 -59.21851 37997 ft 537 kts 84°
2026-05-06 13:29 49.26670 -59.10387 37998 ft 536 kts 84°
2026-05-06 13:30 49.27389 -58.98907 38001 ft 537 kts 84°
2026-05-06 13:30 49.28091 -58.87413 38000 ft 533 kts 82°
2026-05-06 13:31 49.28787 -58.76060 37998 ft 529 kts 81°
2026-05-06 13:31 49.29488 -58.64688 38002 ft 529 kts 81°
2026-05-06 13:32 49.30161 -58.53392 38001 ft 529 kts 81°
2026-05-06 13:32 49.30826 -58.41986 38002 ft 529 kts 81°
2026-05-06 13:33 49.31481 -58.30613 38000 ft 529 kts 82°
2026-05-06 13:33 49.32116 -58.19326 37998 ft 529 kts 82°
2026-05-06 13:34 49.32742 -58.07997 38000 ft 529 kts 82°
2026-05-06 13:34 49.33360 -57.96607 37999 ft 529 kts 82°
2026-05-06 13:35 49.33969 -57.85231 37998 ft 529 kts 82°
2026-05-06 13:35 49.34565 -57.73818 38001 ft 529 kts 82°
2026-05-06 13:36 49.35150 -57.62442 38000 ft 530 kts 82°
2026-05-06 13:36 49.35726 -57.51012 38001 ft 530 kts 82°
2026-05-06 13:37 49.36290 -57.39581 38003 ft 529 kts 82°
2026-05-06 13:37 49.36842 -57.28183 37994 ft 529 kts 83°
2026-05-06 13:38 49.37380 -57.16827 37998 ft 529 kts 83°
2026-05-06 13:38 49.37904 -57.05463 37997 ft 531 kts 83°
2026-05-06 13:39 49.38419 -56.93962 38000 ft 536 kts 82°
2026-05-06 13:39 49.38934 -56.82348 38001 ft 539 kts 82°
2026-05-06 13:40 49.39444 -56.70754 38000 ft 539 kts 82°
2026-05-06 13:40 49.39935 -56.59175 38001 ft 538 kts 82°
2026-05-06 13:41 49.40415 -56.47609 38004 ft 538 kts 82°
2026-05-06 13:41 49.40882 -56.36015 38007 ft 538 kts 82°
2026-05-06 13:42 49.41340 -56.24469 37996 ft 539 kts 83°
2026-05-06 13:42 49.41782 -56.12824 37996 ft 539 kts 82°
2026-05-06 13:43 49.42216 -56.01223 38036 ft 539 kts 83°
2026-05-06 13:43 49.42638 -55.89609 38079 ft 539 kts 82°
2026-05-06 13:44 49.43051 -55.77935 38086 ft 539 kts 83°
2026-05-06 13:44 49.43452 -55.66271 38083 ft 539 kts 82°
2026-05-06 13:45 49.43839 -55.54622 38085 ft 540 kts 83°
2026-05-06 13:45 49.44397 -55.37202 38086 ft 539 kts 83°
2026-05-06 13:46 49.44758 -55.25486 38080 ft 540 kts 83°
2026-05-06 13:46 49.45099 -55.13820 38079 ft 540 kts 83°
2026-05-06 13:47 49.45423 -55.02172 38081 ft 540 kts 82°
2026-05-06 13:47 49.45744 -54.90518 38082 ft 538 kts 81°
2026-05-06 13:48 49.46067 -54.78909 38083 ft 538 kts 81°
2026-05-06 13:48 49.46370 -54.67298 38084 ft 538 kts 81°
2026-05-06 13:49 49.46660 -54.55605 38086 ft 538 kts 81°
2026-05-06 13:49 49.46935 -54.44013 38084 ft 538 kts 81°
2026-05-06 13:50 49.47201 -54.32403 38081 ft 539 kts 82°
2026-05-06 13:50 49.47454 -54.20704 38078 ft 540 kts 82°
2026-05-06 13:51 49.47695 -54.08987 38079 ft 539 kts 82°
2026-05-06 13:51 49.47924 -53.97366 38078 ft 539 kts 82°
2026-05-06 13:52 49.48144 -53.85607 38082 ft 539 kts 82°
2026-05-06 13:52 49.48348 -53.73985 38082 ft 539 kts 82°
2026-05-06 13:53 49.48546 -53.62266 38084 ft 539 kts 82°
2026-05-06 13:53 49.48728 -53.50613 38086 ft 540 kts 82°
2026-05-06 13:54 49.48899 -53.38863 38086 ft 539 kts 82°
2026-05-06 13:54 49.49059 -53.27203 38080 ft 540 kts 82°
2026-05-06 13:55 49.49206 -53.15475 38078 ft 540 kts 82°
2026-05-06 13:55 49.49342 -53.03706 38079 ft 540 kts 82°
2026-05-06 13:56 49.49455 -52.91949 38106 ft 541 kts 81°
2026-05-06 13:56 49.49559 -52.80261 38139 ft 539 kts 80°
2026-05-06 13:57 49.49669 -52.68544 38162 ft 538 kts 79°
2026-05-06 13:57 49.49765 -52.56828 38179 ft 538 kts 79°
2026-05-06 13:58 49.49845 -52.45123 38188 ft 539 kts 80°
2026-05-06 13:58 49.49911 -52.33342 38186 ft 540 kts 81°
2026-05-06 13:59 49.49963 -52.21631 38176 ft 539 kts 81°
2026-05-06 13:59 49.50005 -52.09907 38182 ft 540 kts 81°
2026-05-06 14:00 49.50505 -51.98372 38195 ft 525 kts 70°
2026-05-06 14:00 49.52472 -51.87632 38195 ft 505 kts 57°
2026-05-06 14:01 49.55469 -51.77784 38181 ft 501 kts 54°
2026-05-06 14:01 49.58279 -51.67775 38182 ft 503 kts 56°
2026-05-06 14:02 49.60975 -51.57591 38188 ft 506 kts 57°
2026-05-06 14:02 49.63625 -51.47331 38184 ft 505 kts 57°
2026-05-06 14:03 49.66239 -51.37097 38184 ft 505 kts 57°
2026-05-06 14:03 49.68861 -51.26776 38178 ft 508 kts 58°
2026-05-06 14:04 49.71464 -51.16460 38175 ft 507 kts 58°
2026-05-06 14:04 49.74065 -51.06105 38178 ft 504 kts 58°
2026-05-06 14:05 49.76605 -50.95930 38175 ft 497 kts 57°
2026-05-06 14:05 49.79117 -50.85840 38175 ft 492 kts 57°
2026-05-06 14:06 49.81615 -50.75774 38177 ft 492 kts 57°
2026-05-06 14:06 49.84104 -50.65695 38230 ft 492 kts 57°
2026-05-06 14:07 49.86586 -50.55593 38287 ft 494 kts 57°
2026-05-06 14:07 49.89069 -50.45430 38284 ft 494 kts 57°
2026-05-06 14:08 49.91534 -50.35301 38285 ft 493 kts 57°
2026-05-06 14:08 49.93993 -50.25151 38279 ft 495 kts 58°
2026-05-06 14:09 49.96448 -50.14968 38277 ft 495 kts 58°
2026-05-06 14:09 49.98873 -50.04803 38275 ft 497 kts 60°
2026-05-06 14:10 50.00761 -49.94139 38278 ft 505 kts 65°
2026-05-06 14:10 50.02416 -49.83278 38278 ft 507 kts 66°
2026-05-06 14:11 50.04003 -49.72420 38279 ft 507 kts 66°
2026-05-06 14:11 50.05564 -49.61539 38280 ft 507 kts 66°
2026-05-06 14:12 50.07103 -49.50685 38280 ft 507 kts 66°
2026-05-06 14:12 50.08636 -49.39790 38281 ft 507 kts 66°
2026-05-06 14:13 50.10166 -49.28834 38278 ft 508 kts 67°
2026-05-06 14:13 50.11688 -49.17847 38296 ft 509 kts 67°
2026-05-06 14:14 50.13193 -49.06966 38295 ft 504 kts 68°
2026-05-06 14:14 50.14669 -48.96178 38295 ft 499 kts 69°
2026-05-06 14:15 50.16123 -48.85402 38296 ft 499 kts 69°
2026-05-06 14:15 50.17572 -48.74592 38296 ft 500 kts 69°
2026-05-06 14:16 50.19018 -48.63740 38296 ft 500 kts 69°
2026-05-06 14:16 50.20443 -48.52970 38296 ft 500 kts 69°
2026-05-06 14:17 50.21867 -48.42136 38297 ft 500 kts 69°
2026-05-06 14:17 50.23271 -48.31374 38291 ft 500 kts 70°
2026-05-06 14:18 50.24680 -48.20488 38292 ft 501 kts 70°
2026-05-06 14:18 50.26069 -48.09667 38292 ft 500 kts 70°
2026-05-06 14:19 50.27457 -47.98767 38293 ft 500 kts 70°
2026-05-06 14:19 50.28821 -47.87973 38293 ft 500 kts 70°
2026-05-06 14:20 50.30185 -47.77093 38293 ft 500 kts 70°
2026-05-06 14:20 50.31538 -47.66219 38294 ft 500 kts 70°
2026-05-06 14:21 50.32887 -47.55289 38294 ft 500 kts 70°
2026-05-06 14:21 50.34213 -47.44450 38286 ft 501 kts 70°
2026-05-06 14:22 50.35545 -47.33474 38196 ft 501 kts 71°
2026-05-06 14:22 50.36852 -47.22622 38192 ft 502 kts 71°
2026-05-06 14:23 50.38164 -47.11624 38192 ft 502 kts 71°
2026-05-06 14:23 50.39457 -47.00704 38191 ft 502 kts 71°
2026-05-06 14:24 50.40748 -46.89757 38193 ft 506 kts 71°
2026-05-06 14:24 50.42039 -46.78685 38193 ft 509 kts 72°
2026-05-06 14:25 50.43311 -46.67606 38193 ft 509 kts 72°
2026-05-06 14:25 50.44580 -46.56484 38194 ft 508 kts 72°
2026-05-06 14:26 50.45837 -46.45384 38194 ft 508 kts 72°
2026-05-06 14:26 50.47083 -46.34284 38194 ft 508 kts 73°
2026-05-06 14:27 50.48322 -46.23161 38190 ft 509 kts 73°
2026-05-06 14:27 50.49546 -46.12055 38190 ft 509 kts 73°
2026-05-06 14:28 50.50760 -46.00940 38190 ft 509 kts 73°
2026-05-06 14:28 50.51965 -45.89810 38191 ft 509 kts 73°
2026-05-06 14:29 50.53163 -45.78643 38191 ft 509 kts 73°
2026-05-06 14:29 50.54348 -45.67490 38192 ft 509 kts 73°
2026-05-06 14:30 50.55527 -45.56292 38192 ft 509 kts 73°
2026-05-06 14:30 50.56690 -45.45128 38193 ft 509 kts 73°
2026-05-06 14:31 50.57843 -45.33961 38192 ft 509 kts 73°
2026-05-06 14:31 50.58986 -45.22783 38188 ft 510 kts 73°
2026-05-06 14:32 50.60114 -45.11631 38188 ft 510 kts 73°
2026-05-06 14:32 50.61239 -45.00348 38189 ft 511 kts 73°
2026-05-06 14:33 50.62348 -44.89126 38189 ft 513 kts 72°
2026-05-06 14:33 50.63455 -44.77896 38189 ft 513 kts 72°
2026-05-06 14:34 50.64563 -44.66524 38190 ft 513 kts 72°
2026-05-06 14:34 50.65651 -44.55226 38191 ft 513 kts 72°
2026-05-06 14:35 50.66725 -44.43944 38191 ft 513 kts 72°
2026-05-06 14:35 50.67792 -44.32610 38187 ft 513 kts 73°
2026-05-06 14:36 50.68845 -44.21308 38186 ft 514 kts 73°
2026-05-06 14:36 50.69889 -44.09968 38186 ft 514 kts 73°
2026-05-06 14:37 50.70926 -43.98597 38187 ft 515 kts 73°
2026-05-06 14:37 50.71950 -43.87213 38187 ft 515 kts 73°
2026-05-06 14:38 50.72963 -43.75850 38188 ft 515 kts 73°
2026-05-06 14:38 50.73966 -43.64458 38189 ft 515 kts 73°
2026-05-06 14:39 50.74955 -43.53089 38189 ft 515 kts 73°
2026-05-06 14:39 50.75943 -43.41615 38190 ft 515 kts 73°
2026-05-06 14:40 50.76905 -43.30301 38183 ft 515 kts 74°
2026-05-06 14:40 50.77866 -43.18870 38184 ft 516 kts 74°
2026-05-06 14:41 50.78817 -43.07396 38184 ft 522 kts 73°
2026-05-06 14:41 50.79769 -42.95790 38185 ft 529 kts 73°
2026-05-06 14:42 50.80725 -42.83992 38187 ft 533 kts 73°
2026-05-06 14:42 50.81672 -42.72126 38187 ft 532 kts 73°
2026-05-06 14:43 50.82604 -42.60296 38211 ft 531 kts 73°
2026-05-06 14:43 50.83522 -42.48510 38248 ft 531 kts 73°
2026-05-06 14:44 50.84432 -42.36653 38273 ft 531 kts 73°
2026-05-06 14:45 50.85772 -42.18920 38280 ft 532 kts 74°
2026-05-06 14:45 50.86650 -42.07073 38281 ft 532 kts 74°
2026-05-06 14:46 50.87519 -41.95189 38283 ft 532 kts 74°
2026-05-06 14:46 50.88375 -41.83318 38284 ft 532 kts 74°
2026-05-06 14:47 50.89215 -41.71502 38285 ft 531 kts 74°
2026-05-06 14:47 50.90047 -41.59616 38285 ft 531 kts 74°
2026-05-06 14:48 50.90865 -41.47751 38286 ft 530 kts 74°
2026-05-06 14:48 50.91670 -41.35906 38287 ft 530 kts 74°
2026-05-06 14:49 50.92460 -41.24129 38281 ft 531 kts 75°
2026-05-06 14:49 50.93236 -41.12336 38280 ft 530 kts 75°
2026-05-06 14:50 50.94004 -41.00506 38279 ft 531 kts 75°
2026-05-06 14:50 50.94775 -40.88564 38284 ft 537 kts 76°
2026-05-06 14:51 50.95541 -40.76431 38286 ft 542 kts 77°
2026-05-06 14:51 50.96274 -40.64397 38285 ft 540 kts 77°
2026-05-06 14:52 50.97008 -40.52259 38285 ft 539 kts 77°
2026-05-06 14:52 50.97722 -40.40287 38288 ft 539 kts 77°
2026-05-06 14:53 50.98429 -40.28220 38279 ft 538 kts 78°
2026-05-06 14:53 50.99122 -40.16156 38280 ft 537 kts 78°
2026-05-06 14:54 50.99799 -40.04176 38281 ft 536 kts 78°
2026-05-06 14:54 51.01035 -39.92424 38297 ft 525 kts 68°
2026-05-06 14:55 51.02745 -39.81025 38283 ft 524 kts 69°
2026-05-06 14:55 51.04407 -39.69577 38282 ft 522 kts 69°
2026-05-06 14:56 51.06050 -39.58061 38285 ft 522 kts 69°
2026-05-06 14:56 51.07666 -39.46608 38285 ft 522 kts 69°
2026-05-06 14:57 51.09272 -39.35136 38286 ft 522 kts 69°
2026-05-06 14:57 51.10863 -39.23696 38296 ft 524 kts 70°
2026-05-06 14:58 51.12449 -39.12179 38293 ft 523 kts 70°
2026-05-06 14:58 51.14019 -39.00756 38293 ft 523 kts 71°
2026-05-06 14:59 51.15596 -38.89177 38295 ft 524 kts 72°
2026-05-06 14:59 51.17150 -38.77589 38293 ft 524 kts 72°
2026-05-06 15:00 51.18682 -38.66060 38294 ft 523 kts 72°
2026-05-06 15:00 51.20208 -38.54539 38295 ft 523 kts 72°
2026-05-06 15:01 51.21733 -38.42925 38296 ft 524 kts 72°
2026-05-06 15:01 51.23237 -38.31383 38289 ft 524 kts 73°
2026-05-06 15:02 51.24732 -38.19812 38289 ft 524 kts 73°
2026-05-06 15:02 51.26219 -38.08210 38291 ft 525 kts 73°
2026-05-06 15:03 51.27693 -37.96604 38291 ft 524 kts 73°
2026-05-06 15:03 51.29154 -37.85007 38292 ft 524 kts 73°
2026-05-06 15:04 51.30615 -37.73319 38292 ft 524 kts 73°
2026-05-06 15:04 51.32055 -37.61688 38293 ft 524 kts 73°
2026-05-06 15:05 51.33481 -37.50088 38294 ft 524 kts 73°
2026-05-06 15:05 51.34898 -37.38444 38294 ft 524 kts 73°
2026-05-06 15:06 51.36306 -37.26774 38288 ft 524 kts 73°
2026-05-06 15:06 51.37698 -37.15142 38289 ft 524 kts 74°
2026-05-06 15:07 51.39085 -37.03491 38285 ft 525 kts 74°
2026-05-06 15:07 51.40470 -36.91705 38263 ft 526 kts 75°
2026-05-06 15:08 51.41830 -36.79985 38264 ft 526 kts 75°
2026-05-06 15:08 51.43177 -36.68286 38265 ft 526 kts 75°
2026-05-06 15:09 51.44520 -36.56533 38266 ft 526 kts 75°
2026-05-06 15:09 51.45858 -36.44710 38266 ft 526 kts 75°
2026-05-06 15:10 51.47169 -36.33019 38264 ft 526 kts 75°
2026-05-06 15:10 51.48474 -36.21269 38260 ft 526 kts 75°
2026-05-06 15:11 51.49768 -36.09506 38262 ft 526 kts 75°
2026-05-06 15:11 51.51048 -35.97755 38261 ft 526 kts 75°
2026-05-06 15:12 51.52315 -35.86012 38262 ft 526 kts 75°
2026-05-06 15:12 51.53574 -35.74223 38264 ft 526 kts 75°
2026-05-06 15:13 51.54826 -35.62398 38264 ft 526 kts 75°
2026-05-06 15:13 51.56059 -35.50618 38266 ft 526 kts 75°
2026-05-06 15:14 51.57281 -35.38831 38265 ft 526 kts 75°
2026-05-06 15:14 51.58490 -35.27054 38260 ft 526 kts 76°
2026-05-06 15:15 51.59685 -35.15278 38260 ft 527 kts 76°
2026-05-06 15:15 51.60881 -35.03371 38261 ft 526 kts 76°
2026-05-06 15:16 51.62061 -34.91538 38262 ft 528 kts 77°
2026-05-06 15:16 51.63238 -34.79600 38263 ft 531 kts 77°
2026-05-06 15:17 51.64404 -34.67580 38263 ft 531 kts 77°
2026-05-06 15:17 51.65549 -34.55664 38265 ft 531 kts 77°
2026-05-06 15:18 51.66689 -34.43679 38265 ft 531 kts 77°
2026-05-06 15:18 51.67812 -34.31741 38260 ft 531 kts 78°
2026-05-06 15:19 51.68932 -34.19707 38259 ft 531 kts 78°
2026-05-06 15:19 51.70031 -34.07752 38260 ft 531 kts 78°
2026-05-06 15:20 51.71119 -33.95783 38260 ft 531 kts 78°
2026-05-06 15:20 51.72197 -33.83778 38262 ft 531 kts 78°
2026-05-06 15:21 51.73265 -33.71757 38262 ft 531 kts 78°
2026-05-06 15:21 51.74320 -33.59733 38263 ft 531 kts 78°
2026-05-06 15:22 51.75366 -33.47656 38264 ft 531 kts 78°
2026-05-06 15:22 51.76392 -33.35686 38215 ft 532 kts 78°
2026-05-06 15:23 51.77406 -33.23686 38205 ft 532 kts 79°
2026-05-06 15:23 51.78415 -33.11612 38205 ft 532 kts 79°
2026-05-06 15:24 51.79409 -32.99590 38206 ft 532 kts 79°
2026-05-06 15:24 51.80393 -32.87508 38207 ft 533 kts 79°
2026-05-06 15:25 51.81364 -32.75382 38210 ft 532 kts 79°
2026-05-06 15:25 51.82326 -32.63227 38208 ft 532 kts 79°
2026-05-06 15:26 51.83265 -32.51199 38209 ft 533 kts 79°
2026-05-06 15:26 51.84193 -32.39147 38210 ft 532 kts 79°
2026-05-06 15:27 51.85120 -32.27021 38201 ft 533 kts 80°
2026-05-06 15:27 51.86021 -32.14984 38207 ft 533 kts 80°
2026-05-06 15:28 51.86916 -32.02890 38205 ft 533 kts 80°